星链-31175 (STARLINK-31175 )

导读 | 星芒AI

STARLINK-31175 是 SpaceX Starlink 项目中的一颗低轨通信卫星,属于第三代星链卫星(v1.5)。它于2023年发射,部署在约550公里高度的近地轨道,旨在为全球用户提供高速互联网服务。该卫星采用先进推进系统和激光通信技术,提升网络效率和覆盖能力。作为星链星座的一部分,STARLINK-31175 有助于扩大 SpaceX 在全球宽带市场的影响力,并支持偏远地区的网络接入。

基本信息
目录编号:
58833
目录名称:
STARLINK-31175
国际标识:
2024-017H
轨道中心:
EARTH
卫星名称:
星链-31175
卫星全名:
星链-31175 (STARLINK-31175 )
卫星状态:
已陨落 最后检测时间 2025-02-04
发射日期:
2024-01-24 UTC
国别 :
美国 (US)
星等 :
--
轨道信息
数据来源 国际轨道数据
星历时间: 2025-02-05T00:15:23+0800
轨道信息已过期318天
半长轴: 6526.569km
偏心率: 0.0013631
轨道倾角: 53.095°
近地点辐角 95.443°
升交点赤经 203.662°
平近点角 339.979°
近地点: 139.537km
远地点: 157.331km
周期: 87.455分钟
每日圈数: 16.465519
详细信息
固有亮度:
5
最大亮度:
0.3
卫星平台:
Starlink v2.0 mini
覆盖范围:
全球
运营商:
太空探索技术公司
运营商所在国:
美国
制造商(研发单位):
太空探索技术公司
制造商所在国:
美国
使用方式:
暂无
卫星简介
星链(Starlink)计划是由太空探索技术公司(SpaceX)提出的一个巨型低轨卫星互联网星座项目,计划在2019年至2024年间在太空搭建由约1.2万颗卫星组成的“星链”网络,其中1584颗将部署在地球上空550千米处的近地轨道,并从2020年开始工作。该卫星仍在工作。